GFSNE_925_thetae_273.txt.gz
Theta_e
341 340 345 344 344 344 343 347 347 350 348 341 341 341 341 335 331 335 329 326 326 327 328 331 337 340 341 341 342 345 347 347 346 345 343 342 342 342
341 341 341 339 340 338 340 343 344 344 345 340 340 338 337 336 334 335 335 330 329 327 325 324 329 338 341 342 340 343 347 347 347 347 346 344 342 342
340 342 340 338 337 336 334 335 335 335 336 335 334 336 336 337 337 338 337 336 334 331 328 325 322 326 333 337 341 342 343 347 347 347 347 346 346 345
340 340 338 338 336 337 337 336 336 335 336 337 337 336 336 337 337 337 337 335 335 333 329 328 324 320 326 332 335 341 342 345 347 348 348 348 348 347
334 334 333 332 330 328 327 326 326 326 328 334 336 335 333 330 330 331 331 333 332 329 326 327 325 321 329 335 339 340 341 343 345 346 347 346 346 346
325 323 323 322 320 315 313 312 313 313 314 316 319 325 329 331 330 329 328 328 329 327 325 325 326 330 332 333 333 338 343 343 343 342 343 345 346 347
321 319 318 315 311 311 313 313 313 313 312 311 312 313 316 318 319 321 322 322 323 324 325 326 326 326 327 328 329 330 331 336 340 343 344 344 345 346
314 315 314 313 312 310 308 309 309 312 313 313 312 312 312 313 313 314 316 316 317 319 325 323 322 321 320 321 323 323 324 328 331 333 338 344 346 346
314 313 312 312 312 313 313 313 312 312 310 311 312 312 313 312 312 312 313 313 315 315 316 317 317 318 318 318 318 317 316 315 322 328 330 333 340 344
313 313 313 313 312 309 311 311 311 311 310 310 310 311 311 311 311 312 312 313 313 313 314 316 315 315 316 316 316 314 312 311 313 319 326 329 331 336
312 312 312 311 309 306 309 310 310 310 310 308 308 308 309 309 309 310 312 312 314 314 313 313 314 314 313 314 316 317 316 321 319 317 320 322 326 328
313 313 310 307 307 307 308 309 310 310 309 309 309 310 310 311 310 310 311 312 312 313 314 313 314 316 316 315 317 320 323 322 322 324 327 328 329 330
312 311 310 308 306 306 306 308 309 308 309 309 309 309 310 310 311 311 311 311 312 312 312 313 313 315 316 316 317 317 318 320 321 322 321 320 328 330
310 309 309 307 306 306 306 306 306 306 309 310 309 308 309 309 310 311 311 311 311 311 312 313 313 313 314 316 317 317 318 319 320 321 323 323 322 325
309 308 307 307 307 307 308 306 306 308 308 309 308 308 308 309 309 310 311 311 311 311 310 311 313 313 314 314 314 316 316 318 319 321 322 324 323 328
309 309 308 307 307 307 308 307 308 308 308 308 308 307 307 307 308 309 309 310 310 310 310 311 312 313 314 313 315 316 318 319 319 320 321 321 323 327
307 308 309 309 309 308 308 308 308 307 307 307 307 307 307 307 307 308 308 309 309 309 309 310 311 312 312 312 313 314 315 316 317 318 319 319 320 323
307 308 309 309 309 308 308 308 308 307 307 307 306 307 307 307 306 306 306 307 308 308 308 308 310 311 311 312 312 313 314 315 315 316 318 319 320 321
307 309 309 309 309 309 309 309 309 308 308 308 307 306 306 307 307 306 307 307 307 307 307 309 309 309 312 313 312 311 313 315 316 316 318 320 321 321
308 309 310 310 309 309 309 309 308 308 308 308 308 307 307 307 307 307 306 306 306 307 307 308 308 308 310 311 311 311 311 312 313 313 314 315 319 322
309 310 310 310 309 309 309 308 308 308 307 308 308 308 309 309 307 306 305 304 305 306 306 306 306 307 308 308 309 310 311 311 310 310 311 313 317 322
309 309 309 309 309 309 308 308 307 307 308 308 308 308 308 307 306 304 302 300 305 306 306 305 305 306 308 308 309 310 311 311 310 311 311 310 315 324
310 310 309 309 308 308 307 307 307 307 307 308 308 307 307 306 304 304 300 303 306 305 305 305 305 305 307 307 308 309 310 310 312 315 315 315 315 316

GFSNE_925_thetae_276.txt.gz
Theta_e
347 346 345 346 347 348 344 344 344 346 349 340 341 344 346 345 342 343 338 330 329 327 326 326 328 333 338 340 341 341 342 345 347 346 345 345 343 341
345 345 345 345 344 342 342 343 344 344 345 339 340 341 341 340 336 338 338 334 332 331 328 326 325 323 327 335 340 341 340 341 346 348 346 345 344 343
344 343 343 343 343 341 339 338 336 338 339 336 333 333 338 338 337 339 339 339 338 337 335 333 330 326 323 322 330 336 341 340 343 346 347 347 346 345
342 341 339 336 335 336 337 333 331 334 336 338 337 338 337 340 339 339 338 336 337 337 336 335 332 325 326 322 321 329 335 340 342 343 347 347 347 347
337 336 334 334 330 325 325 325 324 322 322 327 330 334 335 334 335 333 332 332 332 333 332 330 326 325 325 325 321 328 334 337 341 343 345 347 347 347
329 328 326 325 324 324 322 318 314 312 313 314 314 316 319 326 327 330 331 334 332 332 329 328 325 324 325 326 326 332 335 339 341 342 344 346 347 347
323 321 317 313 309 310 314 315 316 315 316 318 315 315 314 314 316 318 319 322 322 323 320 321 323 327 328 327 327 327 331 333 339 343 343 343 343 345
318 318 317 315 315 315 313 312 313 315 315 316 315 315 316 317 315 314 314 315 316 315 316 321 323 323 323 321 321 321 327 330 328 333 336 339 344 345
316 316 314 315 316 314 314 314 315 314 313 313 315 316 316 316 317 317 316 315 316 316 316 316 316 317 317 318 319 318 318 318 318 321 326 332 334 337
316 316 316 317 316 310 312 313 313 313 314 313 312 313 313 314 315 315 315 316 315 315 316 317 316 316 317 317 317 317 317 316 315 313 315 320 328 331
317 316 315 315 312 307 310 311 312 312 313 312 310 311 311 310 310 311 313 315 316 316 316 317 317 316 316 317 317 316 315 316 316 315 313 313 319 327
316 316 315 312 309 307 308 310 311 312 311 311 311 312 313 312 312 313 313 314 315 316 317 317 317 317 318 319 319 320 321 323 323 321 323 323 321 322
314 314 313 311 309 307 307 309 310 308 308 309 311 311 311 312 312 313 313 312 313 314 315 315 316 316 317 318 318 319 319 320 321 322 322 321 323 325
313 311 311 309 308 308 308 309 308 307 310 310 310 311 310 310 309 310 310 311 312 312 313 314 315 315 315 316 318 318 319 319 320 320 322 323 323 323
309 309 309 309 309 310 311 309 308 309 309 310 310 310 310 309 310 310 310 312 312 313 314 314 313 313 315 315 316 316 317 318 319 320 321 322 324 325
311 310 309 309 310 310 310 310 310 310 310 310 310 310 309 309 309 309 309 310 311 312 312 313 313 313 313 314 315 316 315 317 319 322 322 323 324 325
307 308 309 310 310 310 310 310 310 310 310 310 310 310 309 308 308 308 308 308 309 310 310 311 312 312 313 314 315 315 315 315 317 319 320 321 321 321
307 309 310 311 311 311 311 311 310 310 310 310 310 310 310 308 307 308 307 308 308 308 309 309 310 311 312 313 313 314 314 315 316 317 319 320 320 321
308 311 311 311 312 311 312 311 311 310 310 311 310 310 310 310 309 309 309 308 307 307 307 308 308 310 313 314 313 313 314 314 316 316 317 319 320 321
312 312 311 311 312 312 312 312 311 311 311 310 310 310 310 310 309 310 310 310 310 308 307 307 307 308 310 313 312 312 312 314 315 316 316 317 318 317
312 311 311 311 311 311 311 311 311 311 311 310 310 309 310 310 310 310 311 309 308 306 305 305 307 307 307 307 309 310 311 311 311 313 314 315 315 317
311 311 311 311 311 311 310 309 309 308 308 308 308 308 309 310 310 310 310 308 308 307 304 306 306 306 306 307 308 310 311 312 312 312 311 311 312 317
311 311 311 310 310 308 308 308 307 307 307 307 306 307 307 308 309 309 308 308 307 305 306 307 306 306 306 306 307 308 309 310 311 313 313 315 315 313

GFSNE_925_thetae_279.txt.gz
Theta_e
347 347 347 349 347 346 346 345 346 350 347 342 340 339 341 341 342 342 344 338 337 337 333 331 329 327 329 335 339 340 341 342 342 344 346 346 344 344
346 345 346 347 346 343 344 344 343 344 347 341 340 343 341 342 339 340 342 338 333 329 330 329 327 325 324 323 325 331 339 341 341 341 344 346 345 345
344 344 342 341 341 340 340 339 341 340 343 339 340 339 338 333 337 337 338 338 338 338 338 337 335 335 334 331 326 322 323 333 339 341 341 345 347 347
341 340 339 337 335 333 332 329 329 329 332 339 336 336 333 337 339 340 342 340 336 337 336 335 335 335 333 326 322 322 322 321 330 337 340 341 345 347
335 335 333 333 332 329 327 322 319 321 324 324 325 330 334 336 335 336 335 335 334 334 333 333 333 332 330 327 325 323 323 321 323 334 338 341 343 345
331 329 325 323 321 322 325 322 323 322 317 316 316 316 317 321 322 325 327 329 333 335 333 333 332 330 328 325 323 325 322 321 328 333 338 340 342 344
323 321 317 315 313 313 314 316 317 317 317 316 319 318 317 317 318 317 318 319 318 322 324 325 322 321 324 326 328 328 326 325 328 332 337 341 342 343
321 320 321 319 318 317 315 314 315 317 317 318 317 317 319 318 318 319 319 318 318 317 316 318 317 320 323 325 324 326 323 324 328 330 331 334 338 341
319 318 318 318 319 317 315 315 316 316 315 316 317 318 318 318 318 318 319 320 320 318 317 318 318 318 318 318 318 318 319 319 319 319 320 324 327 332
319 318 319 319 317 313 311 313 314 314 315 315 315 315 315 314 314 314 316 317 317 317 318 318 317 318 318 318 317 317 317 317 317 317 318 317 318 321
320 320 319 318 316 311 310 311 312 313 313 313 313 312 312 312 312 313 314 314 315 316 317 320 318 319 319 319 318 318 318 317 316 315 315 315 313 314
318 318 319 317 313 310 310 310 310 312 313 312 311 312 313 315 315 314 315 315 315 316 316 319 319 319 320 319 319 319 321 319 319 321 322 320 317 315
314 314 315 311 309 308 308 310 311 310 310 311 312 313 313 313 313 314 315 314 316 315 314 315 316 317 318 319 319 319 320 321 321 323 323 322 321 319
312 311 313 311 309 309 310 311 310 310 310 311 311 311 311 311 311 311 310 311 312 312 312 313 315 316 316 317 317 317 319 320 321 322 322 322 323 323
312 312 311 310 310 311 312 310 310 311 312 312 311 312 311 311 311 312 311 311 311 312 313 314 314 314 315 315 316 317 317 318 319 320 321 322 322 323
312 311 310 309 310 311 311 312 312 312 312 312 311 311 311 311 310 311 311 311 311 311 311 311 312 313 314 315 315 316 316 317 317 318 320 320 324 323
308 309 310 311 311 312 312 312 312 312 312 312 312 311 311 311 311 311 310 310 310 310 310 310 310 311 312 313 314 314 315 317 317 317 317 320 321 322
308 310 311 312 312 313 314 313 312 312 312 312 312 312 311 311 311 311 311 310 310 310 309 309 309 310 310 311 313 314 314 316 316 316 316 319 320 322
309 311 313 314 314 314 313 313 313 312 312 312 312 312 312 312 312 311 311 310 310 310 310 310 309 308 309 311 311 313 314 314 315 315 317 317 318 319
312 313 314 314 313 313 313 313 313 312 311 310 310 310 310 311 311 311 311 312 311 312 311 311 310 308 308 309 310 310 310 312 314 315 316 316 316 316
313 313 313 313 313 313 312 310 309 309 309 309 309 309 309 309 309 310 311 311 311 311 312 310 308 307 306 307 308 308 308 309 311 312 313 314 315 315
312 312 312 312 312 309 308 308 307 307 307 307 307 307 308 308 308 307 307 310 311 310 310 309 308 307 307 307 307 307 308 309 311 312 313 312 313 316
312 312 312 312 309 307 306 307 306 305 305 304 304 303 303 306 306 306 307 308 309 310 310 309 307 307 307 306 306 306 307 308 309 311 312 313 313 313

GFSNE_925_thetae_285.txt.gz
Theta_e
343 342 343 344 341 341 342 342 342 342 341 342 340 342 339 340 340 341 342 342 342 343 343 342 341 338 338 338 338 338 339 341 344 345 347 347 348 348
340 338 338 338 337 336 337 336 339 341 338 341 341 342 341 340 340 339 340 339 338 338 338 338 338 336 334 331 328 325 324 328 335 339 340 341 342 343
338 336 335 334 330 330 331 331 331 333 336 338 339 339 338 337 339 337 339 333 337 335 334 335 331 329 326 325 327 333 335 332 330 326 323 333 339 340
333 331 331 330 328 327 324 323 322 321 330 330 333 334 335 334 334 335 337 338 337 337 337 334 335 335 335 330 334 335 333 332 330 326 323 321 322 333
330 328 326 323 321 318 317 317 316 320 320 319 320 323 328 328 327 330 332 332 333 334 335 335 335 334 333 334 334 334 333 331 330 328 325 321 320 320
324 314 312 311 313 313 311 313 314 315 317 317 318 320 318 319 319 320 319 320 320 318 321 326 326 322 329 332 332 331 330 328 326 326 325 324 322 321
321 319 316 317 317 313 312 315 315 316 316 315 316 316 318 320 320 318 318 318 319 321 320 319 318 318 319 320 322 323 321 321 326 325 324 326 322 323
321 321 319 318 319 318 315 310 314 315 316 316 316 316 317 319 316 316 316 316 317 318 319 319 320 320 318 316 316 317 318 319 319 326 327 327 326 326
320 319 320 319 320 320 316 312 310 308 309 314 316 316 316 317 317 316 314 313 312 311 314 314 311 313 312 315 317 316 314 315 317 317 317 319 323 324
321 320 319 320 320 317 315 312 310 309 308 309 312 313 313 312 312 312 311 311 312 313 315 314 315 315 317 319 320 319 319 320 318 318 318 317 317 318
315 321 321 320 318 315 313 309 309 310 311 312 312 310 310 311 311 311 312 312 312 313 314 316 316 315 314 316 319 320 320 320 319 320 319 318 317 317
310 311 313 320 317 311 310 309 309 310 311 312 311 310 311 311 312 312 312 314 313 314 316 314 315 314 314 314 317 314 315 316 316 317 321 320 317 317
311 313 314 314 312 311 310 309 309 310 310 311 310 310 311 311 311 311 311 311 313 314 314 313 313 312 311 311 311 311 312 316 315 314 315 318 318 319
311 314 312 312 311 310 310 309 310 311 311 311 310 311 312 312 312 312 311 311 311 311 311 311 311 311 312 311 312 312 313 313 315 315 314 314 316 321
310 311 312 310 308 309 310 311 312 312 311 311 312 312 313 312 312 312 311 311 311 311 310 310 311 311 312 312 313 314 314 313 314 315 315 315 316 316
309 309 309 309 310 310 311 312 313 314 313 313 313 313 312 312 312 313 312 312 311 311 311 310 310 311 312 311 312 313 313 314 312 312 313 313 313 316
309 309 310 310 311 312 312 313 314 315 314 314 313 313 313 312 312 312 312 312 311 311 311 311 311 309 309 310 311 311 311 312 313 313 313 314 313 314
309 309 309 310 311 312 313 314 315 311 309 309 309 309 309 310 311 311 312 312 312 312 311 311 311 310 310 310 310 309 310 310 311 311 313 314 315 315
310 310 311 312 313 314 313 310 308 308 308 308 308 308 308 308 309 309 310 310 310 311 311 311 310 310 307 309 309 309 310 308 310 310 311 313 314 315
312 312 313 314 315 313 310 308 308 308 308 308 308 307 307 307 307 307 308 309 309 309 310 311 310 310 309 309 309 309 309 308 308 308 308 308 309 310
314 314 315 314 311 310 309 308 307 308 308 306 305 305 303 301 301 302 303 305 306 308 309 310 310 310 311 311 309 309 309 307 307 307 307 308 309 311
315 314 313 311 311 310 308 307 308 307 305 304 303 299 297 296 294 294 297 298 297 302 307 309 307 309 311 309 308 307 307 307 307 306 306 307 310 310
313 312 312 312 311 309 308 310 307 304 303 302 299 298 297 296 294 293 294 294 295 299 303 305 305 308 309 308 308 307 307 306 306 306 306 307 308 309

GFSNE_925_thetae_288.txt.gz
Theta_e
340 341 341 339 337 339 340 340 340 338 337 341 339 341 339 341 341 341 342 343 339 340 340 340 340 342 341 341 342 342 343 342 341 341 343 343 343 345
335 334 333 332 332 332 332 331 334 337 335 338 340 341 340 340 340 340 341 340 341 340 340 341 342 340 338 338 339 338 338 339 341 342 343 343 344 345
333 332 330 329 325 324 323 322 322 329 335 337 335 337 335 337 338 337 338 337 337 336 338 339 338 337 334 332 329 327 325 327 329 328 328 331 337 339
330 330 327 327 323 322 317 316 320 320 320 323 326 325 334 329 331 332 334 337 337 337 334 332 333 331 331 330 330 326 330 333 333 332 329 327 326 323
325 317 317 322 318 313 312 312 314 315 316 317 319 319 319 319 320 320 320 322 324 330 335 334 334 334 334 333 333 334 333 333 333 333 330 329 326 322
316 316 313 312 311 311 311 314 315 314 314 314 315 316 318 319 319 318 318 318 318 321 319 328 327 327 330 328 332 333 332 330 330 330 326 328 327 325
319 318 318 318 316 314 311 313 313 313 314 315 315 315 315 317 318 315 315 314 313 320 318 318 318 319 319 319 318 318 318 319 320 320 324 325 326 324
320 320 319 318 319 317 312 311 310 309 309 313 314 314 314 315 316 316 315 314 311 313 311 312 314 314 312 310 312 313 318 319 317 318 319 326 325 325
319 320 319 319 319 319 316 314 313 311 309 310 311 312 313 314 314 313 312 311 311 311 312 313 315 316 316 317 319 319 319 319 318 315 315 316 320 325
318 319 319 320 319 319 316 316 313 310 309 310 311 312 311 310 310 310 311 311 311 311 312 312 314 316 315 315 316 318 316 317 318 319 319 318 318 317
311 311 315 319 320 318 315 312 310 309 309 311 311 311 311 310 311 313 313 312 311 313 313 314 314 315 314 312 313 314 314 313 315 315 317 320 319 318
310 310 311 313 319 316 311 310 309 310 309 309 310 311 310 310 310 311 311 312 312 311 313 314 314 314 311 311 312 310 310 310 310 313 314 315 317 318
311 312 313 313 313 311 311 311 310 309 309 310 310 311 311 311 311 311 310 311 311 311 310 312 313 313 311 311 310 310 309 309 310 312 313 314 314 319
310 310 312 312 312 311 309 308 309 310 311 311 311 311 311 311 312 312 311 312 311 311 310 311 312 311 311 310 310 311 310 311 312 312 313 314 314 314
308 309 310 310 309 309 310 311 311 311 312 313 312 311 312 313 313 313 312 312 312 312 311 311 311 310 311 311 311 311 311 311 311 311 312 314 313 312
309 309 309 309 310 310 311 312 312 313 313 313 313 314 313 313 313 312 312 312 312 312 312 312 311 311 311 311 311 311 311 312 311 311 312 312 312 312
310 310 310 311 311 312 313 313 314 314 314 311 309 309 309 310 310 310 311 311 311 312 311 312 312 311 311 310 310 310 310 310 310 310 310 311 310 310
310 310 310 311 310 311 313 313 314 311 309 309 309 308 308 308 308 308 308 309 311 311 312 311 311 310 309 309 310 309 309 310 309 310 310 311 312 312
310 310 310 311 312 313 314 313 309 309 308 308 308 308 307 306 307 307 307 308 308 309 310 311 311 310 310 310 310 309 309 309 309 309 308 309 310 311
312 312 312 312 313 314 313 309 308 308 308 308 307 305 305 302 299 299 298 300 304 306 308 308 309 310 310 310 309 309 309 309 309 308 308 307 307 307
315 314 313 313 314 311 308 308 308 309 307 305 304 303 300 298 297 296 294 294 297 299 301 306 307 308 310 310 309 309 310 309 309 308 307 307 307 307
314 313 312 311 311 309 308 309 309 306 304 303 302 300 298 298 298 296 295 294 296 297 297 298 303 307 309 309 311 311 309 309 307 307 306 306 307 307
311 311 312 312 311 309 310 310 306 304 303 302 299 298 297 298 298 297 296 296 295 296 298 300 304 305 306 308 309 308 308 307 307 306 306 305 305 305

GFSNE_925_thetae_291.txt.gz
Theta_e
339 339 337 336 335 335 334 336 337 339 336 339 339 340 339 339 339 340 341 342 339 336 337 339 339 339 339 338 340 340 339 340 340 340 341 344 345 345
333 331 329 327 328 327 325 325 330 335 338 336 337 336 336 338 339 338 340 339 340 338 339 339 340 340 340 340 341 340 341 341 342 341 341 341 341 342
331 330 328 325 323 319 319 321 320 323 332 331 329 332 332 330 333 336 337 337 336 337 339 340 340 340 339 339 339 338 338 338 339 340 340 340 341 343
327 326 325 323 318 314 311 313 316 316 318 317 319 319 319 320 320 323 326 329 331 335 334 333 333 332 332 330 331 328 326 326 328 331 331 330 328 326
315 313 318 320 312 310 311 313 313 313 313 314 314 316 317 319 319 318 319 322 320 322 326 331 330 332 332 333 330 332 333 332 330 331 332 332 331 329
316 316 314 313 311 313 310 310 310 309 310 311 313 314 314 316 317 316 315 314 314 320 319 318 320 323 324 330 331 330 328 328 331 332 330 330 328 329
318 318 317 317 315 314 311 311 310 310 309 309 310 312 313 313 315 315 315 314 313 317 311 310 311 312 314 321 321 324 325 323 321 319 319 320 324 325
319 319 318 319 318 316 313 312 312 311 309 309 311 311 310 312 313 314 314 312 310 312 311 310 313 314 315 314 315 318 319 316 319 326 319 317 318 323
319 319 319 319 319 317 315 315 316 313 309 309 310 310 312 311 310 310 310 310 310 311 311 311 312 313 315 315 316 318 316 313 317 318 322 321 316 318
319 319 319 319 319 318 318 315 313 311 310 309 310 311 312 312 311 310 312 311 311 312 312 311 312 313 313 313 315 316 316 313 314 315 316 318 318 316
309 308 310 313 317 319 317 314 310 311 310 309 309 309 310 310 310 310 313 312 310 311 311 312 313 314 313 313 312 311 312 313 311 311 314 315 317 319
309 310 311 312 316 319 317 311 310 310 309 308 309 310 311 310 310 310 310 312 310 310 311 312 313 313 311 311 311 311 310 309 309 309 310 312 314 315
310 310 311 312 313 313 311 311 311 309 308 309 310 312 312 311 311 311 311 311 310 311 311 311 312 313 312 312 311 310 310 310 309 309 310 312 312 314
310 309 309 311 312 311 311 310 309 308 309 310 310 311 312 313 313 314 314 312 312 312 312 311 311 311 311 309 309 310 310 310 310 310 311 312 313 315
309 308 309 310 310 310 310 310 310 311 311 311 312 313 314 314 313 313 313 313 313 313 313 312 312 311 311 311 310 310 310 310 310 310 311 311 312 314
310 310 310 310 309 309 310 311 312 312 313 313 313 314 313 310 310 310 311 311 311 311 311 312 312 312 310 311 310 310 310 310 310 310 310 310 310 311
310 311 311 311 311 312 311 312 313 314 314 312 309 309 309 309 308 308 308 308 308 309 310 311 311 311 311 310 310 310 310 310 309 309 309 309 309 310
310 310 310 310 310 310 311 313 314 313 311 308 308 308 307 307 308 307 306 306 307 307 308 309 311 310 309 310 310 310 309 310 310 309 309 309 310 308
309 310 310 311 311 311 312 312 312 310 308 309 307 307 307 306 304 300 299 299 298 299 303 307 309 310 311 311 311 310 309 310 310 309 308 309 309 308
311 311 313 312 312 312 313 311 309 308 310 308 307 305 304 302 299 298 298 298 296 296 297 300 301 308 309 311 311 310 310 309 309 308 309 309 308 307
314 313 312 312 311 312 311 308 308 309 307 306 304 303 301 299 298 299 298 297 296 296 297 298 298 301 303 307 309 309 310 310 309 309 309 308 307 306
313 311 310 311 311 310 309 309 309 307 305 303 302 301 298 298 298 299 298 297 297 296 296 297 297 300 303 308 309 310 309 309 309 309 309 307 306 304
311 311 312 311 311 311 309 310 308 305 303 301 300 298 297 298 299 300 299 300 300 300 299 300 302 302 305 305 307 308 309 308 308 307 307 306 306 306